TimeEDT,TemperatureF,Dew PointF,Humidity,Sea Level PressureIn,VisibilityMPH,Wind Direction,Wind SpeedMPH,Gust SpeedMPH,PrecipitationIn,Events,Conditions,WindDirDegrees,DateUTC
12:56 AM,28.0,19.0,69,30.40,10.0,WSW,5.8,-,N/A,,Clear,250,2013-03-14 04:56:00
1:56 AM,28.0,19.0,69,30.40,10.0,WSW,6.9,-,N/A,,Clear,250,2013-03-14 05:56:00
2:56 AM,28.0,19.0,69,30.40,10.0,WSW,4.6,-,N/A,,Clear,250,2013-03-14 06:56:00
3:56 AM,27.0,19.0,72,30.40,10.0,West,3.5,-,N/A,,Clear,270,2013-03-14 07:56:00
4:56 AM,25.0,19.0,78,30.40,10.0,West,5.8,-,N/A,,Clear,270,2013-03-14 08:56:00
5:56 AM,24.1,18.0,77,30.40,10.0,West,5.8,-,N/A,,Clear,280,2013-03-14 09:56:00
6:56 AM,25.0,18.0,75,30.40,10.0,West,3.5,-,N/A,,Clear,280,2013-03-14 10:56:00
7:56 AM,26.1,18.0,71,30.41,9.0,Calm,Calm,-,N/A,,Partly Cloudy,0,2013-03-14 11:56:00
8:56 AM,28.0,21.0,75,30.40,6.0,SSW,5.8,-,N/A,,Haze,200,2013-03-14 12:56:00
9:56 AM,32.0,21.0,64,30.42,10.0,WSW,5.8,-,N/A,,Scattered Clouds,240,2013-03-14 13:56:00
10:56 AM,35.1,21.0,57,30.40,10.0,Variable,4.6,-,N/A,,Scattered Clouds,0,2013-03-14 14:56:00
11:56 AM,37.0,19.9,50,30.38,10.0,South,5.8,-,N/A,,Mostly Cloudy,180,2013-03-14 15:56:00
12:56 PM,41.0,19.0,41,30.38,10.0,WSW,8.1,-,N/A,,Mostly Cloudy,250,2013-03-14 16:56:00
1:56 PM,43.0,18.0,37,30.35,10.0,West,5.8,-,N/A,,Mostly Cloudy,280,2013-03-14 17:56:00
2:56 PM,44.1,17.1,34,30.32,10.0,West,4.6,-,N/A,,Mostly Cloudy,280,2013-03-14 18:56:00
3:56 PM,46.0,18.0,33,30.28,10.0,Variable,3.5,-,N/A,,Mostly Cloudy,0,2013-03-14 19:56:00
4:56 PM,46.4,19.4,34,30.26,10.0,WSW,9.2,-,N/A,,Mostly Cloudy,250,2013-03-14 20:56:00
5:56 PM,45.0,19.9,37,30.25,10.0,SW,10.4,-,N/A,,Mostly Cloudy,220,2013-03-14 21:56:00
6:56 PM,43.0,21.9,43,30.26,10.0,WSW,6.9,-,N/A,,Overcast,250,2013-03-14 22:56:00
7:56 PM,39.9,28.0,63,30.27,10.0,West,9.2,18.4,0.00,,Overcast,260,2013-03-14 23:56:00
8:56 PM,39.0,30.0,70,30.27,10.0,WSW,6.9,-,N/A,,Overcast,250,2013-03-15 00:56:00
9:56 PM,37.9,32.0,79,30.27,10.0,WSW,8.1,-,0.00,,Overcast,250,2013-03-15 01:56:00
10:54 PM,35.6,33.8,93,30.25,10.0,South,4.6,-,0.00,,Overcast,180,2013-03-15 02:54:00
10:56 PM,36.0,33.1,89,30.26,10.0,South,3.5,-,0.00,,Overcast,190,2013-03-15 02:56:00
11:11 PM,35.6,32.0,87,30.24,10.0,SSW,5.8,-,N/A,,Overcast,200,2013-03-15 03:11:00
11:56 PM,37.0,32.0,82,30.25,10.0,SSE,6.9,-,N/A,,Overcast,160,2013-03-15 03:56:00